Wetbulb
52.14 52.53 55.19 57.89 45.95 45.03 40.49 41.17 46.48 45.30 46.08 49.42 48.64 46.48 47.05 48.35 47.30 47.15 57.03 56.27 57.40 60.22 65.76 68.99 69.89 71.77 72.77 73.02 73.05 73.45 73.44 73.96 73.89 74.08 74.03 73.86 73.59 73.48 73.23 73.04 72.75 72.80 72.94 72.57 71.75 71.37 70.49 71.04 70.75
50.43 51.06 55.42 52.26 40.40 37.64 39.16 43.95 43.01 45.48 47.47 46.26 45.97 47.57 47.44 47.20 51.27 52.49 54.39 54.90 55.96 57.68 61.17 65.08 68.06 70.65 72.11 72.33 72.71 72.99 73.31 73.59 73.63 73.86 74.13 74.05 73.86 73.30 73.43 72.91 72.74 72.82 72.52 71.92 71.32 70.95 70.18 70.49 70.50
48.87 50.59 48.61 44.76 39.56 36.37 37.68 40.67 43.64 43.62 44.23 43.68 43.29 45.82 47.32 47.54 50.66 51.11 51.18 52.95 54.02 56.65 57.10 60.46 64.73 68.64 70.37 71.60 72.63 72.76 72.75 73.03 73.41 73.54 73.77 73.64 73.73 73.36 73.17 72.65 72.72 72.49 72.39 71.44 71.11 71.27 70.15 70.61 71.02
49.20 48.87 45.90 38.51 37.12 39.37 37.80 41.90 42.64 42.07 42.95 42.76 42.08 41.92 47.64 47.05 46.21 47.29 48.99 48.75 49.74 53.65 55.93 56.71 61.45 65.56 67.75 69.27 71.08 71.53 71.86 72.05 72.43 72.88 73.27 73.43 73.48 72.87 72.14 72.34 72.41 72.12 71.82 71.86 71.17 70.76 69.98 70.33 70.26
48.62 45.67 38.22 35.94 36.02 37.30 40.30 41.39 39.86 39.67 40.78 40.94 40.82 40.16 42.71 44.95 46.94 47.58 47.83 48.40 47.90 49.44 54.54 54.88 57.59 59.69 61.74 64.60 67.59 69.25 71.01 71.42 71.65 71.83 72.36 73.00 72.85 72.38 71.81 71.76 71.86 71.90 71.62 71.35 71.41 71.01 70.44 70.12 70.00
41.53 42.54 35.82 35.22 35.43 36.12 38.27 39.30 38.72 38.33 39.36 40.40 39.82 39.26 42.76 45.55 45.32 46.54 47.85 48.53 48.92 48.40 52.40 52.93 54.71 57.04 58.08 58.68 60.49 64.90 67.58 69.29 70.65 70.63 70.82 72.11 72.37 71.84 71.42 71.34 71.24 71.45 71.18 70.99 71.17 70.77 70.14 69.89 69.69
39.77 38.65 35.58 33.71 34.23 34.37 35.70 39.21 37.56 37.71 38.39 38.96 40.98 37.73 43.52 45.36 44.99 46.30 47.58 48.92 49.33 49.31 49.93 51.47 51.43 52.38 55.67 57.55 57.11 58.29 63.16 65.22 66.61 69.10 69.64 69.18 69.81 70.46 70.30 69.92 70.69 71.07 70.85 70.55 70.19 70.13 69.69 69.55 69.36
41.73 39.69 33.57 34.34 34.74 34.35 36.17 38.03 38.92 38.07 37.96 42.59 41.77 38.21 38.96 41.63 43.88 46.05 47.76 48.18 48.77 49.29 49.61 49.51 50.12 50.44 50.87 55.07 56.90 56.40 58.87 61.95 63.67 64.83 65.30 65.51 65.73 66.49 67.02 66.43 68.35 69.74 70.04 69.94 69.85 69.32 69.15 69.08 68.95
40.80 36.72 35.28 34.02 32.56 34.79 36.91 36.02 39.71 40.99 38.84 40.27 41.14 41.08 40.34 41.57 43.26 44.14 44.82 46.15 46.59 47.23 47.96 48.54 49.28 49.40 50.33 51.84 54.09 55.44 57.89 59.50 62.05 63.61 63.31 64.18 69.34 69.76 68.79 66.22 66.33 68.42 68.94 69.29 69.17 68.73 68.15 67.17 66.55
39.09 36.59 34.69 35.41 35.89 35.30 36.83 36.77 37.98 36.83 38.00 38.55 40.16 41.97 40.92 40.41 40.70 40.45 41.16 41.52 42.94 44.04 45.28 46.87 47.17 48.12 48.75 49.34 52.90 55.46 55.69 57.61 59.36 63.69 65.33 66.38 68.43 69.40 68.20 64.94 63.73 65.97 66.00 67.67 68.33 67.91 66.26 64.99 66.35
36.48 35.86 34.66 35.97 36.77 37.15 36.03 35.95 38.78 36.13 34.55 36.61 34.73 36.08 38.12 38.78 38.85 38.78 39.87 40.71 40.89 42.80 44.63 45.80 46.32 46.90 47.89 49.18 52.98 54.08 55.47 56.69 57.78 59.42 63.96 65.78 67.34 66.80 68.10 68.49 65.53 68.14 63.44 68.25 67.76 67.54 67.15 66.22 65.96
33.99 35.41 35.67 36.12 36.45 35.49 34.52 37.32 35.54 36.40 35.65 34.67 35.11 35.81 36.36 36.84 37.37 37.17 37.77 39.36 40.25 41.39 43.15 45.09 46.60 46.83 45.76 48.86 50.64 53.94 53.63 55.02 55.68 56.39 57.37 61.84 65.94 66.18 67.31 66.49 66.13 66.21 65.70 66.38 67.36 66.69 66.27 66.17 66.89
34.11 34.40 35.43 36.72 36.39 36.04 36.07 34.50 34.71 35.11 34.19 34.92 34.81 34.92 34.69 35.55 36.55 37.83 38.29 39.01 40.21 40.57 42.06 43.94 45.85 46.97 46.21 44.52 48.81 52.37 53.99 54.36 55.03 55.74 56.18 57.94 60.40 63.94 65.36 66.09 66.16 64.95 65.06 64.88 66.09 66.30 65.47 65.70 66.06
35.04 34.84 34.82 35.62 35.48 35.03 32.14 33.79 33.57 33.87 33.25 33.22 32.71 32.71 33.11 33.45 34.49 35.51 37.06 36.96 37.90 39.38 41.51 43.45 44.76 46.66 46.96 46.02 46.70 50.03 53.47 53.82 54.23 55.47 55.84 55.91 57.69 61.24 64.08 66.45 65.43 66.35 65.75 64.79 64.46 64.25 65.15 65.34 65.39
34.39 31.24 33.60 33.15 33.50 32.71 33.34 30.25 30.28 31.81 31.74 32.02 32.37 32.57 32.36 32.77 33.89 33.87 34.63 34.64 36.63 38.72 41.25 42.63 44.14 46.64 45.53 45.48 47.52 50.95 52.32 52.47 53.87 54.40 54.50 54.65 56.09 57.72 63.13 64.51 66.30 65.23 66.31 63.48 63.04 64.04 64.15 64.27 64.91
31.16 31.13 29.46 33.82 32.49 32.73 31.19 26.34 31.80 31.32 30.84 30.30 30.49 31.14 30.73 31.50 32.11 33.38 34.00 34.35 35.87 37.92 39.54 42.17 44.29 45.74 45.02 46.43 48.15 50.36 51.97 51.51 51.65 54.00 54.52 54.14 54.89 56.42 58.70 63.41 64.76 65.76 65.41 63.94 62.32 62.73 62.29 62.56 62.06
30.93 27.59 28.80 29.69 31.51 30.78 29.48 26.75 31.38 30.92 28.96 28.89 29.37 29.37 29.19 29.57 30.89 31.70 32.75 33.69 34.58 36.24 37.44 40.31 42.99 45.96 47.48 49.22 50.50 49.64 51.25 51.45 51.98 52.47 52.94 52.76 53.92 55.08 56.03 61.82 64.01 65.54 63.73 63.32 61.72 62.01 61.97 61.15 61.07
27.01 27.09 28.49 27.84 31.35 29.67 27.57 26.95 31.54 31.67 28.28 27.44 28.19 28.64 28.26 27.87 28.06 29.51 31.27 32.79 33.61 34.12 35.66 38.24 40.61 42.84 44.43 47.23 49.94 49.56 50.69 51.44 51.78 51.17 51.95 52.61 54.20 55.49 55.35 58.85 63.38 64.14 62.98 63.16 62.04 61.28 61.78 60.79 60.35
28.73 26.63 26.63 30.18 31.10 27.00 26.40 26.34 29.16 31.00 28.11 26.66 26.76 26.37 26.18 25.99 27.93 28.77 30.07 31.57 31.74 31.85 33.29 36.41 37.44 40.08 41.23 42.26 45.91 48.85 48.38 50.34 50.58 51.91 52.84 53.69 54.53 55.63 57.50 56.15 60.61 63.43 61.82 61.79 62.04 61.78 60.99 60.20 60.66
29.14 27.44 27.99 28.66 30.30 27.77 26.13 25.42 28.67 28.63 28.03 25.64 24.78 24.65 23.67 24.24 25.35 26.82 27.89 29.11 29.83 30.47 31.91 33.87 35.18 38.14 39.72 40.57 41.65 44.02 46.94 50.82 51.93 51.92 52.64 54.91 56.47 57.68 58.83 56.23 58.20 62.13 61.98 61.46 61.46 60.91 59.54 59.53 59.56
29.31 27.12 26.29 23.86 26.60 26.84 24.83 24.87 20.53 25.98 26.64 26.35 27.14 24.47 23.79 22.69 23.05 24.51 25.97 26.92 28.38 29.34 30.09 31.97 34.25 36.27 38.03 39.09 40.99 43.33 47.96 50.20 51.01 52.26 53.76 54.43 52.55 53.45 55.15 56.43 59.18 60.73 60.92 60.65 60.86 61.02 59.70 57.06 58.61
24.66 28.72 25.49 23.67 20.79 20.59 22.47 18.82 23.27 24.03 23.76 24.74 24.93 23.22 22.27 22.36 23.67 24.29 24.60 25.57 27.10 29.10 30.60 31.63 33.30 35.29 36.69 37.52 38.78 39.79 41.39 43.76 49.12 50.01 52.02 52.20 48.94 46.77 48.53 51.00 56.78 61.64 61.76 60.36 60.88 61.16 60.37 59.80 56.80
27.35 28.27 24.89 21.89 20.35 19.04 20.73 17.12 23.36 21.69 21.58 22.70 22.45 21.55 21.35 21.94 22.40 22.93 23.72 25.47 27.35 28.96 30.21 30.58 31.52 33.47 34.37 35.48 36.87 38.26 39.76 43.36 47.06 47.34 47.95 47.11 44.15 42.13 41.97 44.13 48.22 60.15 58.74 58.37 60.21 59.45 59.62 58.86 58.49
28.20 25.61 23.05 19.41 21.15 15.91 18.30 19.02 23.02 21.79 18.46 20.37 21.00 20.62 20.20 21.01 22.24 23.28 24.55 26.23 26.56 28.20 28.88 29.71 29.64 30.75 32.19 33.34 34.11 35.26 37.39 38.62 40.75 40.96 43.12 42.90 39.64 38.08 37.80 39.23 40.99 43.11 44.13 44.19 41.97 42.30 41.53 41.34 40.86
26.82 23.78 22.84 20.60 18.91 19.98 19.70 17.60 22.27 19.78 19.20 18.22 16.11 16.49 17.87 20.98 21.44 21.92 22.17 23.61 24.93 25.77 26.98 27.91 28.11 28.28 29.91 30.92 31.40 32.56 34.54 35.62 36.18 36.95 37.63 36.72 34.76 34.23 34.29 34.78 35.92 37.24 38.72 40.01 38.09 36.08 35.22 34.72 33.53
22.51 21.35 20.13 14.51 17.23 17.97 19.43 14.59 22.99 17.94 19.66 18.63 17.19 16.04 19.93 19.93 20.74 21.00 21.99 22.96 23.95 25.28 26.33 26.30 26.71 26.86 28.12 29.02 29.28 30.59 31.84 32.71 33.37 34.26 34.22 33.59 32.13 32.06 32.08 31.48 32.14 32.52 33.59 34.16 33.20 32.11 31.21 30.40 29.33
22.11 21.46 21.06 15.50 12.74 11.27 18.86 21.59 19.24 20.01 21.28 21.94 16.80 18.35 17.98 18.58 19.51 20.02 21.53 22.69 23.54 24.56 25.55 25.65 25.70 25.94 26.48 27.03 27.74 27.91 28.85 29.35 29.55 30.39 30.49 30.52 30.83 30.39 29.54 28.91 28.21 28.66 29.58 30.38 31.00 29.39 26.65 27.34 26.51
24.17 25.12 19.06 18.02 13.47 15.46 20.22 16.86 20.60 17.36 17.25 18.16 14.85 16.54 16.94 18.34 18.67 19.54 20.86 21.66 23.11 24.00 25.19 25.55 25.68 25.45 25.76 26.03 26.20 25.98 25.82 26.67 27.12 26.87 26.83 27.15 27.61 28.15 27.79 27.11 26.72 26.69 26.77 26.18 26.64 26.79 24.66 23.67 24.05
22.11 21.29 19.17 18.60 16.91 15.00 13.72 21.30 19.34 16.13 15.97 14.08 14.65 16.30 16.33 17.27 17.57 18.70 20.18 20.98 21.48 22.96 23.90 24.83 24.49 24.43 24.66 24.97 24.78 24.39 24.35 24.29 24.84 24.84 24.91 25.11 25.82 26.90 25.93 25.88 26.18 25.22 25.00 25.26 24.32 23.90 23.42 22.54 22.37
21.90 20.83 21.15 19.43 15.70 16.24 14.52 17.13 20.03 15.99 14.83 14.25 15.28 15.43 16.85 17.83 17.50 18.33 18.69 19.15 19.65 21.28 22.51 23.67 24.11 23.86 24.39 24.90 24.25 23.82 23.90 23.67 22.87 22.68 23.29 24.11 23.89 24.74 24.93 24.80 23.98 23.58 23.76 23.54 22.93 21.62 21.87 20.94 20.37
MSLP
1015.42 1015.08 1014.49 1013.40 1013.16 1012.44 1011.16 1011.06 1011.76 1011.70 1011.70 1012.21 1012.32 1012.11 1011.62 1011.52 1011.38 1011.70 1012.50 1012.96 1012.61 1012.24 1011.72 1011.01 1010.60 1010.14 1009.70 1009.73 1009.86 1010.16 1010.27 1010.39 1010.52 1010.74 1010.77 1011.16 1011.40 1011.66 1011.77 1012.08 1012.40 1012.60 1012.69 1012.94 1013.22 1013.54 1013.75 1014.09 1014.38
1015.42 1015.01 1014.26 1013.52 1012.74 1011.79 1010.81 1011.33 1011.84 1012.22 1012.59 1012.71 1012.41 1012.19 1012.02 1011.55 1012.53 1012.56 1012.73 1013.31 1012.97 1012.54 1012.22 1011.71 1011.03 1010.26 1009.79 1009.60 1009.70 1009.98 1010.23 1010.31 1010.47 1010.58 1010.73 1010.95 1011.19 1011.61 1011.82 1012.03 1012.34 1012.57 1012.70 1012.96 1013.25 1013.55 1013.89 1014.17 1014.51
1015.58 1015.00 1013.75 1013.21 1012.65 1011.50 1011.28 1012.33 1012.60 1013.14 1013.35 1013.17 1012.80 1012.78 1012.70 1012.59 1013.23 1013.60 1014.04 1013.81 1013.18 1012.61 1012.62 1012.20 1011.53 1010.68 1010.10 1009.64 1009.69 1009.78 1010.05 1010.19 1010.29 1010.51 1010.69 1010.79 1011.09 1011.41 1011.78 1012.05 1012.25 1012.56 1012.75 1012.90 1013.22 1013.56 1013.99 1014.36 1014.48
1015.36 1014.76 1014.93 1013.65 1012.32 1012.71 1012.98 1013.25 1013.77 1013.68 1013.70 1013.84 1013.87 1013.02 1013.43 1014.19 1014.29 1014.62 1014.34 1014.04 1013.47 1012.94 1012.79 1012.63 1012.11 1011.38 1010.82 1010.36 1009.90 1009.96 1010.02 1010.20 1010.29 1010.49 1010.59 1010.81 1010.96 1011.18 1011.61 1012.01 1012.23 1012.52 1012.74 1012.86 1013.20 1013.64 1014.04 1014.42 1014.74
1015.45 1014.66 1013.89 1013.47 1013.26 1013.83 1014.21 1014.68 1015.01 1014.51 1014.35 1014.35 1014.74 1013.50 1013.70 1014.68 1014.91 1015.04 1014.69 1014.20 1013.80 1013.40 1013.14 1012.94 1012.63 1011.97 1011.78 1011.27 1010.75 1010.41 1010.18 1010.21 1010.26 1010.41 1010.44 1010.52 1010.80 1011.00 1011.38 1011.79 1012.14 1012.34 1012.60 1012.98 1013.14 1013.65 1014.10 1014.49 1014.83
1015.01 1014.94 1013.95 1013.24 1013.57 1014.66 1015.10 1015.58 1015.54 1015.29 1015.11 1014.82 1014.62 1014.58 1013.92 1014.98 1015.34 1015.44 1015.08 1014.51 1014.02 1013.74 1013.48 1013.31 1012.93 1012.46 1012.04 1011.57 1011.27 1011.06 1010.73 1010.48 1010.39 1010.50 1010.46 1010.50 1010.59 1010.87 1011.15 1011.45 1011.95 1012.28 1012.56 1012.97 1013.21 1013.48 1013.98 1014.47 1014.94
1014.97 1014.66 1014.05 1014.26 1014.31 1014.94 1015.62 1016.45 1016.22 1016.09 1015.80 1015.45 1015.92 1015.08 1014.32 1014.69 1016.03 1015.90 1015.35 1014.77 1014.23 1013.94 1013.74 1013.56 1013.46 1012.99 1012.40 1011.79 1011.43 1011.41 1011.25 1010.84 1010.83 1010.64 1010.66 1010.62 1010.58 1010.67 1010.87 1011.27 1011.64 1012.09 1012.46 1012.88 1013.18 1013.53 1014.04 1014.41 1014.89
1015.97 1015.17 1014.94 1014.86 1014.81 1015.29 1016.62 1016.87 1017.09 1016.92 1016.33 1016.54 1016.30 1015.20 1015.39 1016.52 1016.70 1016.09 1015.37 1014.94 1014.55 1014.31 1014.11 1013.90 1013.65 1013.41 1013.01 1012.32 1011.87 1011.67 1011.62 1011.21 1010.92 1010.98 1010.86 1010.81 1010.83 1010.76 1010.87 1011.00 1011.26 1011.74 1012.23 1012.69 1013.04 1013.48 1014.03 1014.49 1014.95
1016.85 1015.78 1014.98 1015.36 1015.91 1016.03 1017.17 1017.33 1017.42 1017.60 1017.27 1016.90 1016.82 1016.75 1017.69 1017.85 1017.35 1016.31 1015.59 1015.12 1014.98 1014.87 1014.81 1014.49 1014.02 1013.74 1013.41 1012.79 1012.08 1011.81 1011.76 1011.53 1011.12 1010.85 1010.76 1010.83 1010.66 1010.51 1010.69 1010.95 1011.14 1011.46 1011.87 1012.41 1012.91 1013.34 1013.89 1014.45 1015.06
1016.75 1016.19 1015.94 1016.68 1016.90 1017.04 1017.52 1017.80 1017.65 1017.76 1017.12 1016.97 1016.95 1017.32 1018.12 1018.20 1017.75 1017.11 1016.43 1015.89 1015.74 1015.41 1015.21 1014.88 1014.68 1014.08 1013.61 1013.06 1012.47 1012.33 1011.94 1011.62 1011.29 1010.82 1010.81 1010.72 1010.55 1010.45 1010.53 1010.65 1011.18 1011.42 1011.76 1012.46 1012.91 1013.42 1013.93 1014.45 1014.60
1017.56 1016.81 1017.31 1017.27 1017.76 1018.16 1018.10 1018.23 1018.20 1018.04 1017.64 1017.97 1018.70 1018.80 1018.64 1018.58 1018.32 1017.80 1017.27 1016.96 1016.50 1016.13 1015.59 1015.24 1014.98 1014.66 1013.99 1013.21 1012.56 1012.02 1011.71 1011.76 1011.36 1011.13 1010.91 1010.69 1010.41 1010.46 1010.57 1010.78 1011.21 1011.22 1011.83 1012.32 1012.94 1013.54 1013.77 1013.99 1013.99
1018.04 1017.83 1018.01 1018.05 1018.45 1018.67 1018.57 1018.58 1018.36 1018.43 1018.57 1019.63 1019.82 1019.89 1019.60 1019.05 1018.74 1018.51 1017.98 1017.49 1017.12 1016.53 1015.97 1015.59 1015.04 1014.61 1014.17 1013.48 1012.88 1012.23 1011.80 1011.54 1011.36 1011.26 1010.87 1010.82 1010.51 1010.40 1009.86 1010.58 1010.94 1011.21 1011.18 1012.05 1012.78 1013.23 1013.40 1013.78 1013.95
1018.30 1018.39 1018.41 1018.47 1018.66 1018.81 1019.02 1018.83 1018.75 1018.68 1019.78 1020.17 1020.35 1020.23 1019.92 1019.43 1018.99 1018.79 1018.53 1017.97 1017.48 1016.69 1016.12 1015.64 1015.21 1014.58 1014.13 1013.71 1012.65 1012.16 1011.81 1011.37 1011.21 1011.28 1011.17 1010.88 1010.80 1010.79 1010.51 1010.35 1010.64 1011.31 1011.49 1012.45 1012.72 1013.13 1013.38 1013.67 1013.89
1018.83 1018.79 1018.67 1018.58 1018.70 1019.09 1019.13 1018.68 1019.00 1019.02 1020.12 1020.18 1020.38 1020.29 1020.24 1020.03 1019.55 1019.00 1018.65 1018.20 1017.82 1017.20 1016.29 1015.69 1015.23 1014.62 1013.80 1013.38 1012.72 1012.04 1011.65 1011.45 1011.24 1010.74 1010.92 1011.00 1010.79 1010.71 1010.68 1010.45 1010.37 1010.67 1011.22 1012.00 1012.56 1012.95 1013.29 1013.45 1013.78
1019.03 1018.83 1018.46 1018.47 1018.91 1018.99 1019.34 1018.30 1018.52 1019.60 1020.12 1020.17 1020.33 1020.38 1020.35 1020.10 1019.84 1019.37 1019.30 1018.78 1018.21 1017.27 1016.57 1015.74 1014.99 1014.34 1013.69 1012.99 1012.34 1011.45 1011.35 1011.27 1011.05 1010.89 1010.58 1010.71 1010.79 1010.55 1010.42 1010.41 1010.05 1010.34 1010.63 1011.19 1011.76 1012.64 1012.82 1013.25 1013.58
1018.67 1018.67 1018.02 1018.10 1019.00 1019.19 1019.53 1017.41 1018.33 1019.56 1019.95 1020.17 1020.55 1020.54 1020.50 1020.19 1020.03 1019.84 1019.79 1019.26 1018.48 1017.58 1016.56 1015.77 1015.06 1014.30 1013.54 1012.49 1011.59 1010.95 1010.59 1010.79 1010.89 1010.16 1010.07 1010.13 1010.46 1010.65 1010.42 1010.21 1009.85 1009.85 1010.20 1010.73 1011.58 1012.00 1012.52 1013.09 1013.57
1018.48 1017.95 1018.06 1018.16 1019.08 1019.46 1019.50 1017.88 1018.14 1019.63 1020.09 1020.29 1020.57 1020.73 1020.54 1020.39 1020.40 1020.44 1020.15 1019.40 1018.74 1017.99 1016.98 1015.91 1015.10 1013.93 1013.43 1012.39 1011.55 1010.96 1010.60 1010.60 1009.52 1010.19 1011.09 1009.60 1009.81 1010.40 1010.49 1010.07 1009.64 1009.52 1010.04 1010.44 1011.06 1011.79 1012.02 1012.50 1013.40
1018.27 1018.13 1018.26 1018.26 1018.50 1019.33 1018.88 1017.81 1018.10 1019.09 1020.01 1020.24 1020.67 1020.75 1020.79 1020.74 1020.75 1020.80 1020.23 1019.51 1018.82 1018.21 1017.39 1016.31 1015.28 1014.39 1013.76 1012.82 1011.33 1010.63 1010.32 1009.93 1010.05 1010.19 1009.37 1008.89 1009.57 1010.30 1010.18 1009.87 1009.31 1009.54 1009.83 1010.15 1010.79 1011.25 1011.57 1012.05 1012.83
1019.05 1019.07 1018.29 1017.94 1018.57 1019.13 1018.14 1017.59 1017.77 1018.62 1019.91 1020.35 1020.65 1020.77 1020.90 1021.07 1021.11 1020.85 1020.29 1019.59 1018.82 1018.25 1017.58 1016.69 1015.31 1014.54 1014.19 1013.35 1012.15 1010.59 1009.93 1009.68 1009.58 1009.66 1009.63 1009.37 1009.86 1010.02 1009.87 1009.52 1009.13 1009.32 1009.63 1009.58 1010.25 1010.57 1010.87 1011.69 1012.71
1018.90 1018.70 1018.09 1018.00 1018.38 1018.85 1017.91 1016.91 1017.35 1018.54 1019.47 1020.56 1021.13 1020.90 1021.13 1021.11 1021.05 1020.68 1020.22 1019.70 1018.96 1018.36 1017.68 1016.91 1015.58 1014.75 1014.46 1013.88 1013.04 1012.24 1011.43 1010.47 1009.96 1009.78 1009.80 1009.59 1009.60 1009.75 1009.50 1009.05 1008.91 1009.06 1009.24 1009.16 1009.44 1009.86 1010.51 1011.06 1011.80
1018.78 1018.69 1018.70 1019.04 1018.52 1018.32 1018.23 1016.63 1017.43 1018.46 1019.60 1020.32 1020.98 1021.61 1021.62 1021.50 1021.05 1020.70 1020.14 1019.74 1019.27 1018.58 1017.96 1017.03 1015.88 1015.06 1014.79 1014.26 1013.46 1012.35 1011.32 1010.46 1010.07 1009.70 1009.44 1009.79 1009.81 1010.23 1009.63 1009.04 1008.70 1008.67 1008.75 1008.87 1009.24 1009.31 1009.86 1010.85 1011.28
1019.17 1019.23 1019.65 1019.28 1019.57 1018.46 1019.05 1017.42 1017.04 1018.19 1019.16 1020.07 1020.91 1021.57 1021.80 1021.76 1021.52 1021.04 1020.50 1019.84 1019.33 1018.73 1018.03 1017.26 1016.11 1015.23 1014.99 1014.50 1013.45 1012.39 1011.61 1011.05 1010.48 1010.18 1009.69 1010.09 1010.41 1010.56 1009.82 1009.51 1009.10 1008.23 1008.26 1008.73 1008.93 1009.26 1009.58 1010.20 1010.76
1019.58 1019.65 1019.60 1019.56 1019.83 1019.70 1018.64 1018.80 1016.43 1018.50 1019.13 1020.03 1021.02 1021.69 1022.10 1022.15 1021.82 1021.40 1020.96 1020.31 1019.60 1018.89 1018.04 1017.29 1016.23 1015.47 1015.23 1014.55 1013.86 1012.72 1011.94 1011.38 1010.64 1010.53 1010.40 1010.70 1010.64 1010.47 1010.61 1010.00 1009.24 1008.11 1008.33 1008.41 1008.56 1008.91 1009.17 1009.67 1010.66
1020.22 1019.57 1019.46 1019.82 1019.66 1019.10 1018.18 1018.56 1016.48 1018.17 1019.69 1020.56 1021.60 1022.13 1022.48 1022.41 1021.96 1021.54 1021.23 1020.53 1019.69 1018.93 1018.13 1017.24 1016.44 1015.84 1015.36 1014.75 1014.03 1013.23 1012.70 1011.98 1011.31 1011.10 1011.00 1010.99 1011.14 1011.29 1011.36 1010.88 1010.08 1009.65 1009.39 1009.24 1009.50 1009.89 1010.37 1010.61 1011.21
1020.25 1019.98 1019.43 1019.27 1018.90 1017.82 1018.23 1018.65 1016.99 1018.79 1020.28 1021.49 1022.33 1022.76 1022.93 1022.67 1022.26 1021.67 1021.20 1020.53 1019.77 1018.96 1018.17 1017.36 1016.68 1016.11 1015.61 1015.05 1014.34 1013.90 1013.29 1012.75 1012.32 1012.21 1012.11 1011.90 1011.99 1012.34 1012.15 1011.73 1011.22 1010.71 1010.73 1010.53 1010.48 1010.94 1011.52 1011.90 1012.19
1021.45 1021.74 1021.67 1021.32 1019.58 1018.15 1018.02 1017.79 1017.54 1019.76 1021.09 1022.19 1023.07 1023.37 1022.95 1022.82 1022.53 1022.04 1021.42 1020.74 1019.92 1019.05 1018.26 1017.61 1017.00 1016.58 1016.13 1015.42 1014.84 1014.42 1013.87 1013.44 1013.30 1013.31 1013.18 1012.97 1013.24 1013.28 1013.04 1012.70 1012.54 1011.96 1011.93 1011.71 1011.84 1012.00 1012.93 1013.33 1013.88
1022.21 1022.35 1023.03 1022.42 1021.32 1020.36 1017.05 1017.13 1018.69 1020.08 1021.23 1021.99 1023.02 1023.09 1023.08 1023.00 1022.73 1022.28 1021.71 1021.07 1020.35 1019.54 1018.71 1018.06 1017.60 1017.17 1016.64 1016.11 1015.60 1015.19 1014.69 1014.40 1014.21 1014.18 1013.87 1013.97 1013.95 1013.93 1014.03 1013.67 1013.56 1013.45 1013.07 1013.57 1013.58 1013.36 1014.27 1015.26 1015.21
1022.35 1023.15 1023.31 1023.10 1021.65 1019.51 1016.69 1017.51 1018.32 1020.43 1021.75 1022.10 1023.03 1023.30 1023.37 1023.24 1022.90 1022.41 1021.98 1021.53 1020.86 1020.19 1019.37 1018.65 1018.17 1017.66 1017.23 1016.77 1016.34 1015.96 1015.68 1015.42 1015.30 1015.16 1014.80 1014.71 1014.82 1014.80 1014.63 1014.44 1014.56 1014.43 1014.54 1014.77 1015.13 1014.67 1015.58 1016.55 1017.17
1023.03 1023.08 1023.36 1023.49 1022.85 1021.80 1019.65 1017.87 1019.68 1021.43 1022.63 1022.99 1023.51 1023.72 1023.75 1023.46 1023.08 1022.71 1022.41 1022.02 1021.46 1020.68 1019.92 1019.27 1018.75 1018.30 1017.84 1017.44 1017.07 1016.78 1016.63 1016.50 1016.31 1016.09 1015.90 1015.68 1015.63 1015.66 1015.65 1015.48 1015.77 1015.54 1016.19 1015.88 1017.43 1017.44 1016.42 1017.37 1018.28
1023.09 1023.19 1023.24 1023.23 1023.04 1022.76 1022.27 1019.63 1020.46 1022.04 1023.22 1023.71 1023.91 1024.19 1024.08 1023.59 1023.34 1023.13 1022.90 1022.39 1021.73 1021.04 1020.42 1019.79 1019.32 1018.83 1018.45 1018.12 1017.80 1017.63 1017.57 1017.48 1017.35 1017.12 1016.92 1016.84 1016.82 1016.87 1016.70 1016.87 1016.63 1016.79 1017.44 1017.66 1018.19 1017.31 1018.48 1019.15 1019.69
Wind_Speed
7 5 2 2 5 4 5 5 2 3 1 2 6 6 6 6 6 5 8 16 18 14 15 16 17 16 10 13 14 12 13 13 17 18 18 18 17 18 18 17 16 16 17 18 17 16 16 14 14
6 3 1 2 5 7 7 6 8 2 4 9 5 5 7 5 3 6 6 18 16 12 13 15 18 16 14 10 13 13 13 14 16 19 19 18 19 18 18 17 16 16 18 17 17 17 16 15 15
2 3 4 3 4 8 4 1 2 1 7 5 2 3 4 3 3 6 11 15 15 13 12 14 20 19 19 9 11 14 14 14 15 17 19 19 19 18 18 17 17 16 18 17 16 19 16 14 15
2 4 3 6 12 5 2 2 4 8 1 2 8 8 2 6 7 10 13 14 14 13 13 13 17 18 18 17 9 11 12 13 14 15 17 18 18 18 18 17 17 16 17 17 17 17 16 14 13
1 1 4 5 8 3 4 4 5 9 8 7 8 7 8 5 6 14 16 15 14 13 12 12 16 16 16 16 15 11 10 12 13 14 14 18 19 19 19 18 18 17 17 17 17 17 15 14 13
3 2 4 6 3 2 2 4 5 6 7 11 9 9 6 6 16 18 17 16 13 11 11 12 14 16 14 15 17 16 11 7 11 13 14 15 18 18 19 19 19 17 16 16 16 18 17 14 12
2 3 2 4 5 4 1 3 2 5 7 4 10 9 4 4 19 18 18 16 13 11 11 10 11 14 13 11 10 14 16 13 11 8 13 14 16 19 20 20 20 18 16 16 14 16 15 14 13
1 2 3 4 2 3 2 3 3 5 7 10 2 5 6 14 22 19 16 14 13 12 11 12 12 10 11 9 9 7 10 12 11 9 9 8 9 10 13 15 19 19 17 15 13 14 14 13 12
1 4 5 3 3 1 1 4 1 4 12 9 8 11 9 14 16 17 16 15 13 12 14 14 13 11 9 10 7 8 6 9 8 5 5 6 9 12 13 12 13 19 16 15 13 14 14 12 9
3 3 1 1 2 6 8 9 11 9 14 15 14 7 14 15 16 15 14 15 17 17 17 13 14 14 11 8 8 6 5 4 5 4 3 4 7 9 9 11 11 11 11 11 13 13 11 11 10
1 2 2 3 4 5 8 12 12 13 14 5 10 14 18 15 13 13 14 14 15 17 14 14 14 14 14 8 5 3 3 3 2 4 5 3 3 4 4 3 4 9 11 8 10 10 8 11 9
4 2 3 2 2 6 12 10 9 11 7 4 7 10 13 16 15 13 14 14 16 17 16 17 14 14 13 9 5 5 3 3 2 4 4 4 3 3 5 5 4 4 3 7 8 6 10 13 12
3 0 4 7 11 10 6 10 11 12 3 4 7 9 12 14 15 14 13 14 15 16 17 16 17 14 12 12 9 5 6 4 2 2 4 3 3 4 4 3 7 6 5 6 7 8 8 11 12
0 8 11 8 6 4 7 10 6 3 3 5 7 9 12 14 15 16 16 15 16 16 17 17 17 16 13 11 12 9 4 5 4 2 2 5 4 4 4 5 6 9 8 9 6 8 8 9 9
2 6 7 2 2 3 7 13 9 1 3 7 10 12 13 14 15 15 15 17 16 16 17 17 17 17 14 14 12 9 6 5 3 3 4 3 5 7 7 6 8 8 9 13 12 8 8 8 8
3 2 8 4 4 1 3 13 2 2 5 8 10 11 13 15 15 14 15 16 16 17 17 17 14 16 16 13 10 8 7 4 4 2 2 3 5 9 8 6 7 8 10 10 10 8 7 7 5
3 10 14 10 2 5 7 15 2 3 3 7 8 11 12 14 14 14 16 16 15 16 17 16 16 14 14 14 9 8 8 6 4 3 6 3 5 8 10 8 5 9 8 10 10 9 8 9 8
8 10 10 16 6 10 18 23 17 7 6 4 8 10 11 12 14 15 16 15 14 15 16 15 11 13 14 11 9 6 5 5 5 5 4 2 5 9 10 9 8 7 7 9 9 12 11 9 8
6 10 20 17 11 10 17 19 18 9 8 5 6 10 12 13 14 13 14 15 14 14 15 15 12 13 10 8 7 3 4 4 3 3 6 6 7 10 11 8 9 8 7 10 13 10 10 8 9
7 16 13 9 9 14 17 23 15 9 8 2 8 11 12 14 14 14 14 14 15 15 15 15 12 12 10 8 7 5 5 6 5 3 5 6 4 8 9 9 9 9 9 13 9 10 5 5 11
7 10 9 18 22 10 11 11 3 7 7 5 7 9 10 12 15 15 15 13 14 14 15 14 12 11 11 12 8 6 6 6 6 5 4 2 4 8 8 9 11 11 8 8 9 10 11 7 10
6 3 13 17 8 5 2 7 4 6 7 7 10 12 12 13 13 14 14 14 13 14 14 13 12 10 10 12 9 8 5 5 3 4 4 2 5 7 9 9 13 12 10 10 9 10 11 9 10
7 14 13 4 5 6 6 5 3 3 7 4 12 12 12 12 13 14 14 13 12 12 12 12 11 10 10 11 9 7 6 5 4 3 4 4 6 8 9 9 11 11 5 6 10 11 12 8 10
11 6 3 1 3 5 5 3 5 3 2 7 11 13 13 14 13 13 12 12 11 11 11 10 11 10 10 10 10 9 7 6 4 5 4 4 6 6 10 9 8 7 5 5 6 7 7 6 6
9 8 4 3 3 4 4 6 9 5 4 5 11 13 11 12 13 13 13 12 11 12 12 10 12 11 11 10 10 9 7 6 6 5 4 5 5 5 8 9 9 8 7 7 9 10 10 8 8
7 4 3 8 6 8 2 7 2 1 4 5 7 8 8 11 12 13 13 12 12 12 11 12 12 11 10 9 9 8 9 5 5 6 5 6 6 6 8 9 10 12 11 12 9 10 10 10 10
5 2 2 5 2 5 4 4 6 2 5 9 9 9 10 12 12 12 12 12 11 11 11 11 11 10 10 9 7 8 8 8 7 8 8 7 8 7 9 11 12 13 14 11 9 11 14 10 12
3 7 2 3 6 8 5 6 5 2 11 15 11 10 10 11 12 11 10 11 11 11 10 10 10 10 9 9 8 8 9 9 8 8 11 10 9 9 11 13 13 15 16 14 13 12 15 13 10
4 4 3 2 3 5 8 1 3 3 9 13 11 9 9 10 10 10 10 11 10 10 9 9 10 10 9 8 9 9 9 10 9 9 10 11 11 11 11 14 13 15 15 17 14 12 18 17 14
1 3 3 3 3 4 5 8 4 3 5 8 10 7 7 7 9 9 9 9 9 9 10 10 10 9 9 8 9 10 10 9 10 11 12 12 13 13 13 13 16 15 16 15 17 14 16 15 14
Wind_Direction
334 329 289 191 202 251 255 255 296 229 180 60 314 271 296 308 280 333 349 8 349 346 340 342 346 322 250 192 178 177 181 186 183 184 180 182 179 177 175 173 173 172 166 157 155 159 160 156 151
336 288 219 137 240 231 238 247 242 297 330 317 293 271 237 266 340 334 356 348 346 357 349 352 348 355 325 194 174 176 187 192 191 189 187 184 181 183 180 178 175 177 170 163 168 165 163 157 158
279 331 209 211 220 246 270 244 357 14 325 328 309 327 327 355 44 2 356 339 343 2 360 359 359 10 7 257 183 179 193 194 199 198 196 189 185 185 184 181 178 182 173 168 170 164 159 160 161
233 166 131 236 235 249 288 96 346 306 286 54 347 273 163 53 350 355 348 348 349 353 0 3 6 13 18 7 318 209 206 205 205 204 203 196 189 185 188 184 181 184 180 169 167 165 164 164 164
42 209 202 245 255 273 261 328 307 298 301 305 333 279 294 52 23 5 353 351 349 345 354 358 5 18 18 23 16 347 240 218 215 214 205 198 193 188 186 188 186 186 181 179 168 166 165 168 174
132 287 218 242 232 237 254 322 290 277 289 303 292 295 269 116 12 347 338 338 340 338 344 360 355 359 11 15 16 6 9 331 234 233 221 199 196 193 192 188 188 187 184 184 175 168 168 172 181
200 214 316 292 289 260 181 340 273 317 294 328 326 279 295 197 349 337 331 325 330 343 343 351 350 348 346 360 23 3 354 6 358 306 247 231 207 197 194 194 185 186 185 186 179 168 171 172 183
131 234 203 208 257 282 132 320 320 293 302 323 297 273 293 335 337 325 325 329 334 338 343 342 343 340 339 333 341 354 343 343 352 349 328 277 253 234 216 203 191 186 184 183 175 167 170 171 188
264 210 239 241 212 17 136 312 321 297 283 289 280 307 340 333 335 339 337 332 336 335 340 334 337 336 326 326 343 338 316 316 316 322 335 293 248 237 230 215 207 188 183 178 172 167 172 170 173
243 239 264 91 232 271 285 287 302 288 281 279 276 278 338 340 342 341 340 331 332 330 328 330 331 327 325 315 326 313 330 321 329 337 313 307 254 251 246 224 205 192 179 171 167 167 162 170 195
137 276 131 227 251 290 290 282 285 278 281 319 310 316 326 329 333 334 332 327 323 321 317 322 323 322 318 312 305 309 318 299 314 338 338 303 270 219 229 231 209 195 179 184 178 178 184 195 198
249 236 249 322 261 302 291 301 263 267 295 308 305 316 316 321 323 325 324 325 323 320 317 319 318 315 315 308 284 269 285 294 311 327 351 331 310 329 216 177 193 195 148 187 195 202 196 196 196
242 311 270 265 288 290 270 254 270 266 293 308 323 318 322 319 318 318 311 312 319 317 318 316 316 310 307 305 289 262 253 242 243 299 313 325 311 294 321 170 174 168 164 208 200 204 197 204 199
234 294 291 293 282 282 278 281 278 153 321 312 321 326 323 317 318 315 316 318 315 316 314 316 311 306 300 293 283 265 235 246 240 184 300 297 284 283 255 225 192 182 178 178 194 202 189 199 199
302 293 301 260 188 261 302 261 231 101 304 312 323 323 319 316 315 316 318 315 315 311 312 311 311 308 298 294 275 254 234 237 245 244 185 259 277 274 263 271 203 200 187 181 187 193 192 199 199
275 243 336 80 275 271 296 290 165 208 321 318 319 319 319 319 320 319 319 314 315 313 314 311 312 308 297 289 287 268 243 236 218 245 294 205 267 271 269 250 235 199 197 183 188 180 178 192 196
65 320 321 329 193 285 240 293 82 226 271 300 319 319 320 319 321 330 323 321 319 318 318 314 317 317 312 301 283 262 248 241 278 254 244 250 253 263 259 250 231 209 196 191 190 204 194 182 192
318 319 311 307 330 266 271 273 275 232 243 283 317 324 324 324 330 329 325 327 326 328 319 317 318 324 326 313 293 261 251 236 233 242 267 271 247 250 249 252 239 214 198 196 196 202 191 178 165
286 291 300 303 336 280 267 278 287 247 226 253 325 333 333 329 329 330 332 333 334 336 328 322 330 336 333 326 319 313 288 272 223 239 256 244 247 253 244 239 245 207 204 196 199 187 186 181 157
294 303 307 313 271 292 280 286 284 225 228 255 331 340 332 327 331 335 338 340 343 333 331 324 336 336 331 320 317 290 315 299 291 280 255 251 302 274 256 238 235 220 213 210 202 192 172 190 173
299 285 311 305 323 275 293 270 227 198 199 219 330 337 331 332 331 333 338 342 338 334 331 329 330 338 328 330 312 299 268 245 256 235 221 260 334 295 291 289 250 224 210 201 193 193 176 183 185
308 98 317 320 319 317 353 297 230 183 208 222 343 340 339 337 334 331 334 337 338 334 330 330 337 341 333 327 321 322 293 282 293 296 309 328 11 335 331 304 276 238 212 208 204 193 188 190 186
261 322 308 292 258 311 175 257 150 190 218 311 346 344 338 337 335 330 330 330 332 334 336 332 346 351 339 337 336 333 321 317 352 9 326 4 22 8 349 336 323 244 231 209 204 196 203 195 192
306 310 277 196 251 245 165 266 264 203 218 317 344 344 341 332 334 333 334 332 338 343 344 345 355 355 348 347 350 353 349 349 10 11 351 4 23 13 6 0 10 28 66 85 82 92 75 88 89
17 333 324 261 244 312 168 253 281 175 210 300 331 331 333 333 334 336 340 341 340 345 352 355 0 358 354 355 3 360 1 19 39 29 16 35 32 18 15 23 28 40 38 64 82 79 70 64 78
58 4 30 299 317 318 285 240 332 106 247 270 313 307 338 342 342 337 338 338 339 346 356 2 2 360 358 3 12 9 18 33 49 51 64 60 56 42 38 44 40 50 50 53 74 79 71 65 73
115 67 78 265 191 269 244 256 144 201 310 322 345 342 356 346 342 337 337 340 342 348 356 5 4 6 10 12 22 28 33 42 51 53 62 62 63 61 56 62 57 58 57 55 58 76 71 64 71
32 136 195 160 307 295 279 280 312 342 331 319 342 348 353 343 339 335 341 346 348 350 351 11 14 13 19 26 29 39 43 45 51 56 64 64 60 66 69 69 67 65 63 55 47 80 73 69 64
158 160 135 247 246 297 310 5 65 35 318 308 328 344 353 340 330 333 346 351 348 355 3 18 22 23 31 37 44 48 48 50 52 59 60 62 64 65 70 75 74 73 70 67 63 57 78 78 69
19 168 164 212 152 238 285 281 142 95 315 299 323 336 352 332 323 337 349 348 354 1 10 24 28 28 28 42 59 59 58 59 62 63 63 63 67 64 68 74 78 74 77 78 76 76 66 66 72